Погода в Сиве

Россия / Пермский край     58°22′53″N   54°22′46″E
темп.,
°C
ветер,
м/с
пор.,
м/с
влажн.,
%
обл.,
%
осадки,
мм/ч
давл.,
гПа
погр.,
м
19 мая, ср
ср1923:00+13в27740 0.0 1022145
02:00+11вюв24835 0.0 102384
05:00+10вюв259427 0.0 1024111
08:00+14юв356534 0.0 1024385
11:00+19юв344422 0.0 1024943
14:00+22юв33335 0.0 10221315
17:00+24ююв23305 0.0 10221510
20:00+21вюв22455 0.0 102128
20 мая, чт
чт2023:00+14ююв226214 0.0 102220
02:00+12ю116853 0.0 102211
05:00+11ююв117041 0.0 102210
08:00+17ююв23545 0.0 1022205
11:00+22ююв23370 0.0 10211039
14:00+25ююв33293 0.0 10201607
17:00+26ююв34290 0.0 10181861
20:00+22ю23480 0.0 101778
21 мая, пт
пт2123:00+16ю210670 0.0 1018180
02:00+14ююв22700 0.0 101718
05:00+12юв22750 0.0 101737
08:00+18ююв39560 0.0 1016359
11:00+23ююв58362 0.0 10151373
14:00+24ю6838100 0.0 10142271
17:00+22ююз595186 0.1 10131663
20:00+21ююз4751100 0.0 1013889
22 мая, сб
сб2223:00+15ю311763 0.0 1014307
02:00+13ю27870 0.0 1014169
05:00+12ю279662 0.0 1014161
08:00+15юз4783100 0.3 1014535
11:00+19зюз575480 0.4 10151599
14:00+18з6760100 0.1 10161356
17:00+20зюз4847100 0.1 10172082
20:00+18зюз494798 0.0 1017716
23 мая, вс
вс2323:00+12зюз3970100 0.0 1019193
02:00+11з2377100 0.0 101962
05:00+10зюз227852 0.0 102031
08:00+15юз35631 0.0 1021347
11:00+20юз34410 0.0 10211725
14:00+22юз35339 0.0 10202110
17:00+22юз4534100 0.0 10202093
20:00+19ю3751100 0.0 1019281